Location: Powder Track
(41.8531°N, 72.3584°W)
Time: 17:29:06
(UTC+00:00)

Transit 4A - Pass Details

Date: 11 August 2021
Orbit: 871 x 974 km, 66.8° (Epoch: 19 September)

Event Time Altitude Azimuth Distance (km) Brightness Sun altitude
Rises 01:39:06 0° 188° (S) 3,490 - -17.3°
Reaches altitude 10° 01:41:43 10° 182° (S) 2,541 - -17.6°
Exits shadow 01:43:21 19° 174° (S) 1,984 9.2 -17.9°
Maximum altitude 01:47:13 43° 112° (ESE) 1,208 8.1 -18.4°
Drops below altitude 10° 01:52:40 10° 43° (NE) 2,525 10.2 -19.2°
Sets 01:55:15 0° 37° (NE) 3,465 11.0 -19.5°
